Terug naar catalogus

STARLINK-4120

ActiefCommunicatieVLEO
NORAD 53537·PAYLOAD·🇺🇸 United States

Gelanceerd Aug 19, 2022 vanaf Cape Canaveral Space Force Station

Loading…

Volgende Passages (komende 24 uur)

TLE

VersSource: CelesTrak SupGP

Epoch: Sep 15, 2026, 02:23 UTC

1 53537C 22101L   26258.09979167 -.00002275  00000+0 -67226-4 0  2582
2 53537  53.1600 294.6783 0001214  91.8404 254.2625 15.34391714    18

Volg STARLINK-4120 in realtime met AllMySat

Download on the App Store